Manhattan, KS

8:17 PM CST on January 18, 2017 (GMT -0600)
Manhattan Regional

Weather History for KMHK - March, 2013

Change the Weather History Date:

Friday, March 8, 2013

  Actual Average Record
Temperature  
Mean Temperature 50 °F 40 °F  
Max Temperature 66 °F 53 °F 79 °F (2006)
Min Temperature 34 °F 27 °F 8 °F (2008)
Degree Days  
Heating Degree Days 15 25  
Month to date heating degree days 236 211  
Since 1 July heating degree days 3993 4371  
Cooling Degree Days 0 0  
Month to date cooling degree days 0 0  
Year to date cooling degree days 0 0  
Moisture  
Dew Point 38 °F    
Average Humidity 62    
Maximum Humidity 82    
Minimum Humidity 42    
Precipitation  
Precipitation T in 0.08 in 0.65 in (1999)
Month to date precipitation 0.02 0.62  
Year to date precipitation 1.73 2.34  
Sea Level Pressure  
Sea Level Pressure 30.03 in    
Wind  
Wind Speed 11 mph (SE)    
Max Wind Speed 24 mph    
Max Gust Speed 31 mph    
Visibility 10 miles    
Events      
T = Trace of Precipitation, MM = Missing Value Source: NWS Daily Summary

Daily Weather History Graph

Daily Weather History Graph

Search for Another Location

Airport or City:

Trip Planner

Search our weather history database for the weather conditions in past years. The results will help you decide how hot, cold, wet, or windy it might be!

Date:

Astronomy

Mar. 08, 2013 Rise Set
Actual Time 6:48 AM CST 6:26 PM CST
Civil Twilight 6:21 AM CST 6:53 PM CST
Nautical Twilight 5:50 AM CST 7:24 PM CST
Astronomical Twilight 5:19 AM CST 7:55 PM CST
Moon 4:32 AM CST (3/8) 3:24 PM CST (3/8)
Length of Visible Light 12h 31m
Length of Day
11h 38m
Waning Crescent, 11% of the Moon is Illuminated
Mar 8
Waning Crescent
Mar 11
New
Mar 19
First Quarter
Mar 27
Full
Apr 2
Last Quarter

Hourly Weather History & Observations

Time (CST) Temp. Windchill Dew Point Humidity Pressure Visibility Wind Dir Wind Speed Gust Speed Precip Events Conditions
12:52 AM 37.9 °F 32.7 °F 28.9 °F 70% 30.13 in 10.0 mi ENE 6.9 mph - N/A   Clear
1:52 AM 34.0 °F 29.8 °F 28.0 °F 79% 30.13 in 9.0 mi NNE 4.6 mph - N/A   Clear
2:52 AM 35.1 °F 31.0 °F 28.0 °F 76% 30.12 in 10.0 mi NNE 4.6 mph - N/A   Clear
3:52 AM 35.1 °F 31.0 °F 28.0 °F 76% 30.10 in 10.0 mi NNE 4.6 mph - N/A   Clear
4:52 AM 37.0 °F 34.5 °F 28.9 °F 73% 30.10 in 10.0 mi NNE 3.5 mph - N/A   Clear
5:52 AM 37.4 °F 34.9 °F 28.4 °F 70% 30.09 in 10.0 mi NNE 3.5 mph - N/A   Clear
6:52 AM 42.1 °F 39.2 °F 30.9 °F 65% 30.10 in 5.0 mi SE 4.6 mph - N/A   Haze
7:52 AM 44.1 °F 39.5 °F 32.0 °F 63% 30.11 in 7.0 mi SSE 8.1 mph - N/A   Clear
8:52 AM 48.9 °F - 33.1 °F 54% 30.10 in 9.0 mi South 10.4 mph - N/A   Clear
9:52 AM 53.1 °F - 34.0 °F 48% 30.10 in 10.0 mi South 10.4 mph 17.3 mph N/A   Clear
10:52 AM 60.1 °F - 37.9 °F 44% 30.08 in 10.0 mi South 11.5 mph 21.9 mph N/A   Clear
11:52 AM 62.1 °F - 39.9 °F 44% 30.07 in 10.0 mi South 16.1 mph 23.0 mph N/A   Clear
12:52 PM 63.0 °F - 42.1 °F 46% 30.04 in 10.0 mi SSE 15.0 mph - N/A   Clear
1:52 PM 64.0 °F - 43.0 °F 46% 30.00 in 10.0 mi SSE 16.1 mph - N/A   Overcast
2:52 PM 61.0 °F - 43.0 °F 52% 29.99 in 10.0 mi SE 13.8 mph 21.9 mph N/A   Overcast
3:52 PM 61.0 °F - 44.1 °F 54% 29.96 in 10.0 mi SSE 13.8 mph 23.0 mph N/A   Overcast
4:52 PM 61.0 °F - 46.0 °F 58% 29.94 in 10.0 mi SE 16.1 mph 24.2 mph N/A   Overcast
5:52 PM 60.1 °F - 46.9 °F 62% 29.94 in 10.0 mi SSE 13.8 mph 21.9 mph N/A   Overcast
6:52 PM 55.0 °F - 46.0 °F 72% 29.96 in 10.0 mi South 15.0 mph 29.9 mph N/A   Overcast
7:13 PM 53.6 °F - 46.4 °F 77% 29.95 in 10.0 mi SSE 17.3 mph 26.5 mph N/A   Overcast
7:52 PM 53.1 °F - 45.0 °F 74% 29.96 in 10.0 mi SSE 11.5 mph - N/A   Overcast
8:52 PM 53.1 °F - 44.1 °F 71% 29.95 in 10.0 mi SSE 16.1 mph 25.3 mph 0.00 in   Overcast
9:52 PM 54.0 °F - 43.0 °F 66% 29.93 in 10.0 mi South 13.8 mph - 0.00 in   Overcast
10:52 PM 54.0 °F - 42.1 °F 64% 29.91 in 10.0 mi South 19.6 mph 24.2 mph N/A   Overcast
11:52 PM 55.0 °F - 39.9 °F 57% 29.88 in 10.0 mi South 16.1 mph - N/A   Overcast